OneWeb SL0304

operational
NORAD ID: 49092 Int'l Des: 2021-075 Owner: ONEWEBN Country: UK Constellation: oneweb
LEOCIRCULARPOLARONEWEB_TYPE

Über OneWeb SL0304

Beschreibung wird geladen...

Live-Position

3D-Globus wird geladen...

Nächste Überflüge

Höhenverlauf

Altitude vs Time

uPlot chart will show altitude changes over time

Zweizeiliger Elementsatz

1 49092U 21075T 25304.29673481 .00000048 00000-0 90224-4 0 9996
2 49092 87.9135 51.3776 0001668 96.7063 263.4259 13.17650220203430
Epoch: 31. Okt. 2025 • Age: 12 hours

Aktueller Status

Höhe 1221.8 km
Geschwindigkeit 7.24 km/s
Subsatellitenpunkt -72.64°S, 71.61°E
Startdatum 21. Aug. 2021
Alter 4.1 years
Typ internet

Technische Details

Klassifizierung Payload
Masse 148.00 kg
Trockenmasse 140.00 kg
Gesamtmasse 148.00 kg
Länge 1.30 m
Durchmesser 1.00 m
Spannweite 5.00 m
Form Trapezoid+2 pan
Hersteller ONEWUS
Bus-Typ ARROW
Phasenstatus In Orbit
Besitzer/Staat ONEWEBN/UK

Große Konstellationen

Loading constellations...